Track KALAMSAT-V2/PSLV now! 10-day predictions KALAMSAT-V2/PSLV is classified as:
1 43948U 19006B 21027.46070191 .00002405 00000-0 61100-4 0 9997 2 43948 98.8013 101.7559 0003484 217.3005 142.7996 15.41020497112908